[[{"header":{"parameterUnit":"m.s-1","parameterCategory":1,"la1":30.2991,"la2":30.254,"lo1":-89.0895,"lo2":-89.0444,"dy":0.0017,"dx":0.0017,"nx":28,"ny":28,"refTime":"2026-02-02T03:00:00:Z","depth":0,"parameterNumber":2,"parameterNumberName":"U-component_of_WINDS"},"data":[0,0,0,0,0,0,0,0,0,0,0,0,0,0,0,0,0,0,0,0,0,0,0,0,0,0,0,0,0,0,0,0,0,0,0,0,0,0,0,0,0,0,0,0,0,0,0,0,0,0,0,0,0,0,0,0,0,0,1.54,1.5401,0,1.548,1.5481,1.5481,1.5522,1.5522,1.5522,1.5522,1.5604,1.5606,1.5608,0,0,0,0,0,0,0,0,0,0,0,0,0,1.5283,1.5285,1.54,1.5401,1.5402,1.548,1.5481,1.5482,1.5522,1.5522,1.5522,1.5522,1.5603,1.5605,1.5608,0,0,0,0,0,0,0,0,0,0,0,0,0,1.5345,1.5286,1.54,1.5432,1.5435,1.5479,1.5481,1.5482,1.5522,1.5522,1.5522,1.5522,1.5602,1.5605,1.5608,1.5627,0,0,1.5618,1.5619,0,0,0,0,0,0,0,0,1.5342,1.535,1.5426,1.5429,1.5434,1.5491,1.5469,1.5531,1.5522,1.5489,1.5522,1.5522,1.5566,1.5572,1.5587,1.5631,1.5634,1.5618,1.562,1.5622,1.5622,0,0,0,0,0,0,0,1.5338,1.5347,1.5432,1.5427,1.5432,1.5442,1.5451,1.5481,1.5526,1.5492,1.5495,1.5504,1.5568,1.5584,1.5589,1.5635,1.5618,1.5621,1.5623,1.5624,1.5698,1.5699,0,0,0,0,0,0,1.5328,1.5343,1.5429,1.5434,1.5387,1.5444,1.5454,1.5473,1.5526,1.5534,1.5504,1.5506,1.5578,1.5585,1.5592,1.5618,1.5622,1.5625,1.5626,1.5698,1.5698,1.5699,0,0,0,0,0,0,1.5325,1.5335,1.5426,1.5389,1.5402,1.5446,1.5467,1.5474,1.549,1.5535,1.5543,1.5512,1.5579,1.5588,1.5618,1.5621,1.5626,1.5629,1.5698,1.5698,1.5698,1.5668,0,0,0,0,0,0,1.5322,1.5334,1.5342,1.5389,1.5403,1.545,1.5467,1.5476,1.5495,1.5498,1.5544,1.5552,1.5579,1.5613,1.5621,1.5625,1.5631,1.5698,1.5698,1.5698,1.5669,1.5667,1.5666,0,0,0,0,0,1.5318,1.533,1.5342,1.5352,1.5414,1.545,1.5458,1.549,1.5495,1.5503,1.5532,1.5551,1.5619,1.5616,1.5625,1.5631,1.5698,1.5698,1.5698,1.567,1.5668,1.5666,0,0,0,0,0,0,1.5282,1.5337,1.5351,1.5379,1.5409,1.5457,1.5468,1.5486,1.5516,1.5517,1.5555,1.5565,1.5592,1.5614,1.5609,1.5652,1.5661,1.5663,1.5636,1.5634,1.5632,1.5626,1.5634,0,0,0,0,0,1.5277,1.5302,1.5349,1.5369,1.5384,1.5423,1.544,1.5462,1.5495,1.5508,1.554,1.5571,1.56,1.5618,1.5647,1.5673,1.5683,1.5681,1.5679,1.5678,1.5679,1.5694,1.5694,1.5699,1.5699,1.5699,0,0,1.5268,1.5301,1.5314,1.5363,1.5389,1.5415,1.5434,1.546,1.5479,1.5512,1.5543,1.5567,1.5605,1.5633,1.5647,1.5652,1.568,1.5678,1.5676,1.5679,1.5694,1.5694,1.5693,1.5699,1.5699,1.5699,0,0,1.5263,1.5291,1.5311,1.5337,1.5377,1.5403,1.5408,1.5453,1.547,1.5501,1.5527,1.555,1.5599,1.5625,1.5645,1.565,1.5668,1.5659,1.565,1.5664,1.5664,1.5663,1.5666,1.5666,1.566,1.566,1.566,0,1.5247,1.5286,1.5319,1.5344,1.5364,1.5396,1.5416,1.544,1.5487,1.55,1.5506,1.5568,1.5596,1.563,1.5632,1.5647,1.5653,1.5654,1.5661,1.5661,1.5662,1.5664,1.5665,1.5658,1.5659,1.5659,1.5659,0,1.5263,1.529,1.5301,1.5346,1.5368,1.539,1.5427,1.5445,1.5465,1.549,1.5522,1.5556,1.5593,1.5602,1.5622,1.564,1.5642,1.5654,1.5664,1.5659,1.5662,1.5663,1.5656,1.5657,1.5657,1.5658,0,0,1.5238,1.5301,1.5305,1.5326,1.5372,1.5394,1.5417,1.5453,1.5468,1.55,1.5521,1.5561,1.5573,1.5595,1.5617,1.563,1.5633,1.5641,1.5642,1.5638,1.5655,1.5645,1.5646,1.5645,1.5645,1.5645,1.5652,0,1.524,1.5285,1.5315,1.5348,1.5373,1.5403,1.5424,1.5455,1.5479,1.5504,1.5531,1.556,1.5573,1.5586,1.56,1.5629,1.5636,1.5629,1.5665,1.5666,1.5654,1.5647,1.5638,1.5642,1.5653,1.5653,1.5653,0,1.5249,1.5279,1.5314,1.5358,1.537,1.5388,1.5424,1.5447,1.5483,1.55,1.5524,1.5548,1.5574,1.5582,1.5619,1.5613,1.563,1.5646,1.5647,1.5651,1.5659,1.5652,1.5644,1.5644,1.5655,1.5655,1.5655,0,1.5227,1.5277,1.5304,1.5321,1.5373,1.5385,1.5408,1.5443,1.5463,1.5494,1.5507,1.5541,1.5559,1.5585,1.5616,1.5619,1.565,1.566,1.5665,1.5664,1.567,1.5669,1.5664,1.568,1.568,1.568,1.568,0,1.5226,1.5246,1.5295,1.5312,1.5336,1.5371,1.5393,1.5418,1.5449,1.5472,1.55,1.552,1.5561,1.5586,1.5611,1.5638,1.5646,1.566,1.5667,1.5658,1.5656,1.5669,1.5669,1.5681,1.5681,1.5681,1.5681,0,1.5205,1.5239,1.5271,1.5318,1.533,1.5345,1.5385,1.5403,1.5429,1.5457,1.5465,1.5506,1.5537,1.5571,1.5614,1.5631,1.5656,1.5665,1.5644,1.5648,1.565,1.565,1.5654,1.5656,1.567,1.567,1.567,0,1.5202,1.5218,1.5267,1.5284,1.5306,1.5333,1.5353,1.5388,1.5408,1.545,1.5463,1.5496,1.5525,1.5573,1.5607,1.5639,1.5649,1.5649,1.5654,1.5645,1.5649,1.5648,1.565,1.5647,1.5646,1.5646,1.5646,0,1.5193,1.5209,1.5238,1.5272,1.5295,1.5324,1.5354,1.5366,1.5408,1.5429,1.5461,1.5483,1.5527,1.5559,1.5596,1.5619,1.5639,1.5644,1.5647,1.5638,1.5625,1.5632,1.5639,1.5644,1.5644,1.5644,1.5644,1.5644,1.5181,1.5197,1.5234,1.5265,1.5291,1.5318,1.5337,1.5366,1.5393,1.5432,1.5451,1.5483,1.5519,1.557,1.5593,1.5619,1.5625,1.5629,1.563,1.563,1.5628,1.5621,1.5625,1.5626,1.5626,1.5626,1.5626,0,1.5174,1.5199,1.5227,1.5268,1.5292,1.5309,1.5343,1.5362,1.539,1.5422,1.545,1.5487,1.5519,1.5555,1.5589,1.5603,1.5613,1.5611,1.561,1.5615,1.562,1.5614,1.5602,1.5602,1.5602,1.5602,1.5602,1.5602,1.5173,1.5201,1.5221,1.5262,1.5288,1.532,1.5338,1.5363,1.5388,1.5429,1.5456,1.5479,1.5513,1.555,1.558,1.559,1.5601,1.5596,1.5608,1.5613,1.5615,1.5616,1.5611,1.5598,1.5598,1.5601,1.5601,1.5601]},{"header":{"parameterUnit":"m.s-1","parameterCategory":1,"la1":30.2991,"la2":30.254,"lo1":-89.0895,"lo2":-89.0444,"dy":0.0017,"dx":0.0017,"nx":28,"ny":28,"refTime":"2026-02-02T03:00:00:Z","depth":0,"parameterNumber":3,"parameterNumberName":"V-component_of_WINDS"},"data":[0,0,0,0,0,0,0,0,0,0,0,0,0,0,0,0,0,0,0,0,0,0,0,0,0,0,0,0,0,0,0,0,0,0,0,0,0,0,0,0,0,0,0,0,0,0,0,0,0,0,0,0,0,0,0,0,0,0,1.0638,1.0637,0,1.0572,1.0571,1.057,1.0567,1.0568,1.0569,1.057,1.0498,1.0495,1.0493,0,0,0,0,0,0,0,0,0,0,0,0,0,1.0757,1.0755,1.0638,1.0637,1.0636,1.0572,1.0571,1.057,1.0567,1.0568,1.0569,1.057,1.0499,1.0496,1.0492,0,0,0,0,0,0,0,0,0,0,0,0,0,1.07,1.0754,1.0638,1.0627,1.0625,1.0572,1.0571,1.057,1.0567,1.0568,1.0569,1.057,1.05,1.0496,1.0492,1.0444,0,0,1.048,1.0478,0,0,0,0,0,0,0,0,1.0703,1.0695,1.063,1.0628,1.0626,1.0579,1.0587,1.0527,1.0567,1.0589,1.057,1.0571,1.0524,1.0518,1.0503,1.044,1.0437,1.048,1.0477,1.0475,1.0474,0,0,0,0,0,0,0,1.0707,1.0698,1.0612,1.0629,1.0626,1.0624,1.0617,1.0575,1.055,1.0587,1.0587,1.0579,1.0523,1.0506,1.0501,1.0436,1.048,1.0476,1.0474,1.0472,1.0329,1.0327,0,0,0,0,0,0,1.0714,1.0701,1.0614,1.061,1.0668,1.0621,1.0613,1.0593,1.0551,1.0546,1.0578,1.0579,1.0513,1.0506,1.0498,1.0437,1.0475,1.0472,1.0469,1.033,1.0328,1.0327,0,0,0,0,0,0,1.0716,1.0706,1.0616,1.0655,1.0644,1.0618,1.0595,1.0591,1.0574,1.0544,1.0539,1.0566,1.0513,1.0504,1.0457,1.0435,1.047,1.0466,1.0332,1.033,1.0328,1.0316,0,0,0,0,0,0,1.072,1.0707,1.0689,1.0655,1.0642,1.0577,1.0593,1.0589,1.0568,1.0569,1.0532,1.0527,1.0514,1.0463,1.0453,1.043,1.0463,1.0334,1.0331,1.0328,1.0318,1.0314,1.031,0,0,0,0,0,1.0724,1.0688,1.0688,1.0678,1.062,1.0576,1.0568,1.0555,1.0566,1.0548,1.0528,1.0528,1.0439,1.0458,1.0447,1.0423,1.0335,1.0332,1.0328,1.032,1.0315,1.031,0,0,0,0,0,0,1.0719,1.0684,1.0683,1.0636,1.0609,1.0576,1.0552,1.055,1.0519,1.0521,1.0504,1.0496,1.0449,1.0431,1.0453,1.0372,1.0388,1.0383,1.0386,1.038,1.0376,1.0381,1.046,0,0,0,0,0,1.0713,1.0682,1.0652,1.0613,1.06,1.0578,1.0559,1.0551,1.0522,1.051,1.0487,1.0458,1.0424,1.0401,1.0368,1.0316,1.0307,1.0294,1.0289,1.0286,1.0281,1.025,1.0243,1.0316,1.0316,1.0316,0,0,1.0699,1.0676,1.0657,1.0612,1.059,1.0557,1.0569,1.0533,1.0508,1.0505,1.0459,1.0441,1.0407,1.0357,1.0334,1.0341,1.0259,1.0282,1.028,1.0276,1.0246,1.0239,1.0233,1.0314,1.0314,1.0315,0,0,1.0657,1.0637,1.0602,1.058,1.0547,1.0533,1.0524,1.0491,1.0479,1.0433,1.043,1.0399,1.034,1.0316,1.0296,1.0243,1.0241,1.0233,1.021,1.018,1.0175,1.0169,1.0149,1.0142,1.0228,1.0228,1.0228,0,1.0643,1.0595,1.0583,1.0548,1.0527,1.0523,1.0486,1.0465,1.0423,1.0408,1.0417,1.0342,1.0319,1.0262,1.025,1.0234,1.0222,1.0236,1.0177,1.0171,1.0166,1.0146,1.0139,1.0227,1.0227,1.0227,1.0227,0,1.0579,1.0545,1.052,1.048,1.0456,1.042,1.0401,1.0379,1.0373,1.0357,1.0309,1.0282,1.0242,1.0228,1.0222,1.017,1.0175,1.0181,1.0196,1.0159,1.0139,1.0132,1.0226,1.0226,1.0226,1.0226,0,0,1.0531,1.0485,1.0476,1.0457,1.0421,1.0393,1.0356,1.0319,1.0298,1.0269,1.0236,1.0186,1.0191,1.0168,1.0159,1.0133,1.0091,1.0141,1.014,1.0131,1.0029,1.0024,1.0016,1.009,1.0088,1.0087,1.0031,0,1.0483,1.0418,1.0407,1.0349,1.0317,1.0313,1.028,1.0253,1.0237,1.0206,1.0188,1.0152,1.0162,1.0148,1.0122,1.0101,1.007,1.0105,1.0057,1.0055,1.0064,1.0006,1.0001,0.9949,1.0024,1.0023,1.0022,0,1.0419,1.0389,1.0328,1.0295,1.0281,1.0252,1.0215,1.0187,1.0155,1.0145,1.012,1.0113,1.0072,1.0091,1.0033,1.0057,1.0037,1.0023,1.0021,1.0015,1.0035,0.9996,0.9933,0.9925,1.001,1.0011,1.0012,0,1.0388,1.0332,1.0288,1.0273,1.0233,1.0213,1.0195,1.0165,1.0143,1.0111,1.0095,1.0059,1.0038,1.0009,0.9992,1.0007,0.9934,0.9952,0.9923,0.9924,0.9907,0.9908,0.9838,0.9897,0.9897,0.9897,0.9897,0,1.0335,1.0297,1.0274,1.0247,1.0204,1.019,1.0148,1.0131,1.0104,1.0072,1.0066,1.0036,1.0016,0.9983,0.9969,0.9922,0.9913,0.9903,0.9899,0.9902,0.9903,0.9887,0.989,0.9895,0.9895,0.9896,0.9896,0,1.0292,1.0275,1.0227,1.0194,1.0185,1.0154,1.0125,1.0098,1.0082,1.0042,1.0031,1.0006,0.9966,0.9946,0.9897,0.9887,0.9834,0.9833,0.9844,0.9843,0.9815,0.9817,0.973,0.9717,0.9787,0.9786,0.9786,0,1.0259,1.023,1.0194,1.0172,1.0155,1.0121,1.0098,1.0083,1.0059,1.002,0.9997,0.9957,0.9924,0.986,0.9836,0.9798,0.9795,0.9768,0.9789,0.9793,0.9792,0.9794,0.979,0.9763,0.9762,0.9762,0.9761,0,1.02,1.0193,1.0161,1.0126,1.0099,1.007,1.0041,1.0024,1.0004,0.9977,0.9937,0.9911,0.9861,0.982,0.978,0.976,0.9756,0.9755,0.9746,0.9748,0.9755,0.9749,0.9832,0.9757,0.9757,0.9758,0.9758,0.9758,1.0159,1.0133,1.0103,1.0067,1.0045,1.0018,0.999,0.9971,0.9938,0.9896,0.9889,0.9845,0.9813,0.9759,0.9737,0.9702,0.9708,0.9695,0.9692,0.9688,0.9686,0.9762,0.9695,0.9695,0.9695,0.9695,0.9695,0,1.0099,1.008,1.0047,1.0007,0.9979,0.998,0.9948,0.9923,0.9886,0.9857,0.9825,0.9777,0.9738,0.9711,0.967,0.9647,0.9644,0.9637,0.9637,0.9632,0.9684,0.9695,0.9639,0.9639,0.9639,0.9639,0.9639,0.9639,1.0064,1.0019,1.0008,0.9951,0.9932,0.989,0.9871,0.9846,0.9823,0.977,0.9738,0.9721,0.9692,0.9649,0.9613,0.9606,0.959,0.9582,0.9575,0.9623,0.9629,0.9634,0.9644,0.9579,0.9579,0.9525,0.9525,0.9525]}]]